N0JY-4 Weather Reports


Display with metric or nautical units.
time (UTC)temp
F
wind
direction
speed
MPH
gust
MPH
rain 1hr
in
rain 24hr
in
rain mn
in
humidity
%
barometer
mb
20170323001533 79 108 8.0 10.0 0.00 0.00 0.00 60 1016.7
20170323000800 79 129 8.0 11.0 0.00 0.00 0.00 60 1016.7
20170323000034 79 129 13.0 9.0 0.00 0.00 0.00 59 1016.6
20170322235304 79 148 10.0 12.0 0.00 0.00 0.00 60 1016.6
20170322234537 80 139 11.0 13.0 0.00 0.00 0.00 58 1016.5
20170322233805 80 150 12.0 12.0 0.00 0.00 0.00 57 1016.3
20170322233034 80 152 15.0 13.0 0.00 0.00 0.00 57 1016.2
20170322232307 81 118 12.0 11.0 0.00 0.00 0.00 55 1016.3
20170322231540 81 139 10.0 11.0 0.00 0.00 0.00 56 1016.3
20170322230806 82 153 12.0 12.0 0.00 0.00 0.00 55 1016.2
20170322230040 82 148 14.0 8.0 0.00 0.00 0.00 57 1016.2
20170322225313 82 129 10.0 10.0 0.00 0.00 0.00 55 1016.2
20170322224544 82 149 10.0 9.0 0.00 0.00 0.00 54 1016.3
20170322223813 82 153 12.0 17.0 0.00 0.00 0.00 54 1016.3
20170322223045 82 145 9.0 11.0 0.00 0.00 0.00 55 1016.3
20170322222318 83 155 11.0 13.0 0.00 0.00 0.00 55 1016.5
20170322221551 83 108 11.0 11.0 0.00 0.00 0.00 55 1016.6
20170322220814 83 118 10.0 13.0 0.00 0.00 0.00 54 1016.6
20170322220046 83 104 10.0 12.0 0.00 0.00 0.00 53 1016.6
20170322215318 82 111 10.0 10.0 0.00 0.00 0.00 55 1016.8
20170322214551 83 120 10.0 12.0 0.00 0.00 0.00 55 1016.8
20170322213816 82 141 11.0 7.0 0.00 0.00 0.00 54 1016.9
20170322213047 83 143 10.0 13.0 0.00 0.00 0.00 54 1017.0
20170322212321 83 118 8.0 9.0 0.00 0.00 0.00 55 1016.9
20170322211553 83 143 12.0 11.0 0.00 0.00 0.00 53 1017.0
20170322210822 83 139 7.0 10.0 0.00 0.00 0.00 53 1017.1
20170322210052 83 113 13.0 10.0 0.00 0.00 0.00 53 1017.2
20170322205326 83 136 11.0 10.0 0.00 0.00 0.00 54 1017.2
20170322204558 84 149 9.0 11.0 0.00 0.00 0.00 53 1017.2
20170322203824 83 122 7.0 12.0 0.00 0.00 0.00 57 1017.3
20170322203057 83 121 9.0 7.0 0.00 0.00 0.00 55 1017.4
20170322202331 84 170 10.0 8.0 0.00 0.00 0.00 54 1017.5
20170322201603 83 160 13.0 14.0 0.00 0.00 0.00 55 1017.6
20170322200827 84 167 8.0 10.0 0.00 0.00 0.00 54 1017.8
20170322200056 83 132 8.0 7.0 0.00 0.00 0.00 55 1017.8
20170322195330 84 173 10.0 5.0 0.00 0.00 0.00 56 1018.0
20170322194603 82 177 11.0 11.0 0.00 0.00 0.00 55 1018.2
20170322193831 83 183 9.0 9.0 0.00 0.00 0.00 59 1018.1
20170322193105 82 129 9.0 8.0 0.00 0.00 0.00 56 1018.3
20170322192338 82 190 9.0 6.0 0.00 0.00 0.00 58 1018.4
20170322191609 82 170 10.0 7.0 0.00 0.00 0.00 57 1018.5
20170322190838 82 156 10.0 10.0 0.00 0.00 0.00 58 1018.5
20170322190108 82 170 8.0 7.0 0.00 0.00 0.00 59 1018.6
20170322185341 81 160 9.0 8.0 0.00 0.00 0.00 58 1018.7
20170322183839 81 162 8.0 10.0 0.00 0.00 0.00 61 1018.9
20170322183113 81 142 8.0 13.0 0.00 0.00 0.00 60 1019.1
20170322182346 82 201 5.0 8.0 0.00 0.00 0.00 61 1019.3
20170322181619 82 150 7.0 6.0 0.00 0.00 0.00 62 1019.4
20170322180848 80 156 11.0 10.0 0.00 0.00 0.00 62 1019.4
20170322180121 80 145 11.0 9.0 0.00 0.00 0.00 65 1019.4
20170322175354 81 162 11.0 10.0 0.00 0.00 0.00 63 1019.4
20170322174628 80 148 14.0 10.0 0.00 0.00 0.00 64 1019.3
20170322173856 80 167 11.0 8.0 0.00 0.00 0.00 65 1019.3
20170322173127 79 167 12.0 11.0 0.00 0.00 0.00 65 1019.3
20170322172400 79 159 13.0 9.0 0.00 0.00 0.00 64 1019.3
20170322171633 79 135 6.0 10.0 0.00 0.00 0.00 65 1019.4
20170322170859 79 145 9.0 15.0 0.00 0.00 0.00 65 1019.3
20170322170132 79 150 10.0 10.0 0.00 0.00 0.00 66 1019.3
20170322165404 80 174 9.0 9.0 0.00 0.00 0.00 65 1019.3
20170322164636 79 177 9.0 15.0 0.00 0.00 0.00 66 1019.4
20170322163904 79 146 9.0 8.0 0.00 0.00 0.00 66 1019.4
20170322163138 78 155 12.0 8.0 0.00 0.00 0.00 69 1019.5
20170322162409 78 179 9.0 6.0 0.00 0.00 0.00 71 1019.5
20170322161642 77 155 8.0 8.0 0.00 0.00 0.00 72 1019.5
20170322160911 77 172 9.0 11.0 0.00 0.00 0.00 73 1019.5
20170322160143 76 121 9.0 6.0 0.00 0.00 0.00 72 1019.4
20170322155416 76 156 9.0 11.0 0.00 0.00 0.00 72 1019.4
20170322154649 75 172 11.0 8.0 0.00 0.00 0.00 74 1019.3
20170322153917 75 166 7.0 8.0 0.00 0.00 0.00 76 1019.4
20170322153150 75 166 7.0 6.0 0.00 0.00 0.00 77 1019.4
20170322152423 74 200 9.0 7.0 0.00 0.00 0.00 78 1019.4
20170322151822 72 165 8.0 8.0 0.00 0.00 0.00 83 1019.4
20170322151656 73 177 9.0 10.0 0.00 0.00 0.00 81 1019.3
20170322150924 73 156 7.0 8.0 0.00 0.00 0.00 81 1019.2
20170322150157 72 165 8.0 8.0 0.00 0.00 0.00 83 1019.4
20170322145431 71 122 7.0 8.0 0.00 0.00 0.00 86 1019.3
20170322144703 70 145 10.0 9.0 0.00 0.00 0.00 86 1019.4
20170322143930 70 162 8.0 8.0 0.00 0.00 0.00 87 1019.3
20170322143202 69 163 7.0 9.0 0.00 0.00 0.00 90 1019.4
20170322142435 69 145 6.0 7.0 0.00 0.00 0.00 90 1019.3
20170322141708 69 131 6.0 6.0 0.00 0.00 0.00 92 1019.2
20170322140210 68 149 8.0 9.0 0.00 0.00 0.00 93 1019.0
20170322135441 68 162 9.0 6.0 0.00 0.00 0.00 95 1018.8
20170322134713 67 165 9.0 8.0 0.00 0.00 0.00 96 1018.8
20170322133944 67 136 7.0 6.0 0.00 0.00 0.00 97 1018.8
20170322133217 66 162 6.0 7.0 0.00 0.00 0.00 99 1018.8
20170322132446 65 150 5.0 5.0 0.00 0.00 0.00 99 1018.8
20170322131718 65 153 4.0 4.0 0.00 0.00 0.00 99 1018.7
20170322130945 65 174 3.0 3.0 0.00 0.00 0.00 100 1018.8
20170322130217 64 146 4.0 4.0 0.00 0.00 0.00 100 1018.7
20170322125451 64 158 5.0 4.0 0.00 0.00 0.00 100 1018.5
20170322124724 64 149 6.0 4.0 0.00 0.00 0.00 99 1018.5
20170322123952 64 124 4.0 4.0 0.00 0.00 0.00 99 1018.4
20170322123226 64 128 6.0 4.0 0.00 0.00 0.00 99 1018.2
20170322122459 63 149 6.0 5.0 0.00 0.00 0.00 98 1018.1
20170322121730 64 148 6.0 6.0 0.00 0.00 0.00 98 1017.9
20170322120955 64 148 4.0 4.0 0.00 0.00 0.00 97 1017.9
20170322120225 64 135 6.0 6.0 0.00 0.00 0.00 97 1017.7
20170322115459 64 146 5.0 5.0 0.00 0.00 0.00 96 1017.6
20170322114732 64 152 5.0 5.0 0.00 0.00 0.00 96 1017.5
20170322113958 64 160 6.0 5.0 0.00 0.00 0.00 96 1017.5
20170322113231 65 153 5.0 5.0 0.00 0.00 0.00 95 1017.4
20170322112504 65 158 4.0 3.0 0.00 0.00 0.00 95 1017.3
20170322111738 65 141 4.0 4.0 0.00 0.00 0.00 94 1017.3
20170322111006 65 149 5.0 4.0 0.00 0.00 0.00 94 1017.1
20170322110237 65 141 5.0 5.0 0.00 0.00 0.00 93 1017.1
20170322105511 65 114 4.0 3.0 0.00 0.00 0.00 92 1017.2
20170322104743 65 143 4.0 3.0 0.00 0.00 0.00 91 1017.2
20170322104012 66 115 2.0 2.0 0.00 0.00 0.00 90 1017.2
20170322103245 66 132 2.0 3.0 0.00 0.00 0.00 90 1017.2
20170322102520 66 152 4.0 5.0 0.00 0.00 0.00 90 1017.0
20170322101752 66 143 5.0 6.0 0.00 0.00 0.00 89 1016.9
20170322101013 66 110 3.0 2.0 0.00 0.00 0.00 88 1016.9
20170322100245 66 136 6.0 7.0 0.00 0.00 0.00 88 1016.8
20170322095520 66 108 5.0 4.0 0.00 0.00 0.00 87 1016.8
20170322094749 66 114 5.0 6.0 0.00 0.00 0.00 87 1016.8
20170322094017 67 127 5.0 3.0 0.00 0.00 0.00 86 1016.8
20170322093250 67 122 4.0 5.0 0.00 0.00 0.00 85 1016.7
20170322091759 67 129 5.0 6.0 0.00 0.00 0.00 84 1016.7
20170322091024 67 148 5.0 5.0 0.00 0.00 0.00 84 1016.7
20170322085529 67 131 4.0 4.0 0.00 0.00 0.00 85 1016.9
20170322084802 67 127 5.0 4.0 0.00 0.00 0.00 85 1016.8
20170322084029 67 127 4.0 5.0 0.00 0.00 0.00 84 1017.0
20170322083304 68 146 5.0 5.0 0.00 0.00 0.00 82 1017.0
20170322082536 67 129 7.0 6.0 0.00 0.00 0.00 82 1017.0
20170322081810 68 146 6.0 6.0 0.00 0.00 0.00 81 1017.0
20170322081038 68 155 8.0 6.0 0.00 0.00 0.00 81 1017.1
20170322080309 68 135 6.0 5.0 0.00 0.00 0.00 81 1017.0
20170322075543 68 117 4.0 5.0 0.00 0.00 0.00 81 1017.0
20170322074816 68 153 6.0 3.0 0.00 0.00 0.00 80 1016.9
20170322074044 68 143 6.0 7.0 0.00 0.00 0.00 80 1016.8
20170322073318 68 129 7.0 6.0 0.00 0.00 0.00 80 1016.9
20170322072552 68 143 7.0 6.0 0.00 0.00 0.00 79 1016.9
20170322071825 69 138 7.0 6.0 0.00 0.00 0.00 79 1017.0
20170322071050 69 142 5.0 4.0 0.00 0.00 0.00 79 1017.2
20170322070323 69 150 4.0 4.0 0.00 0.00 0.00 79 1017.2
20170322065557 70 148 3.0 3.0 0.00 0.00 0.00 78 1017.2
20170322064830 70 180 3.0 3.0 0.00 0.00 0.00 76 1017.1
20170322062607 71 158 4.0 5.0 0.00 0.00 0.00 75 1016.5
20170322061840 70 120 6.0 5.0 0.00 0.00 0.00 75 1016.3
20170322061109 70 143 7.0 6.0 0.00 0.00 0.00 75 1016.3
20170322060336 70 136 7.0 7.0 0.00 0.00 0.00 75 1016.2
20170322055609 70 142 7.0 5.0 0.00 0.00 0.00 76 1016.2
20170322054842 70 163 6.0 5.0 0.00 0.00 0.00 75 1016.3
20170322054111 71 117 6.0 7.0 0.00 0.00 0.00 74 1016.6
20170322053345 71 150 7.0 8.0 0.00 0.00 0.00 73 1016.8
20170322052618 71 132 9.0 7.0 0.00 0.00 0.00 73 1016.9
20170322051851 71 131 7.0 7.0 0.00 0.00 0.00 73 1017.2
20170322051114 71 165 4.0 5.0 0.00 0.00 0.00 74 1017.4
20170322050347 71 136 4.0 4.0 0.00 0.00 0.00 74 1017.4
20170322045621 71 136 5.0 6.0 0.00 0.00 0.00 74 1017.4
20170322044853 72 183 4.0 3.0 0.00 0.00 0.00 73 1017.7
20170322044119 72 212 3.0 4.0 0.00 0.00 0.00 71 1018.0
20170322043354 73 205 5.0 3.0 0.00 0.00 0.00 70 1017.6
20170322042623 73 138 6.0 4.0 0.00 0.00 0.00 70 1017.1
20170322041855 73 122 5.0 6.0 0.00 0.00 0.00 70 1016.9
20170322041122 73 129 6.0 6.0 0.00 0.00 0.00 70 1017.0
20170322040356 73 139 6.0 8.0 0.00 0.00 0.00 69 1017.1
20170322035630 73 129 7.0 7.0 0.00 0.00 0.00 69 1017.1
20170322034903 73 91 7.0 7.0 0.00 0.00 0.00 69 1016.9
20170322034131 74 148 8.0 7.0 0.00 0.00 0.00 68 1016.8
20170322033403 74 117 7.0 9.0 0.00 0.00 0.00 67 1016.8
20170322032636 74 141 7.0 6.0 0.00 0.00 0.00 67 1016.7
20170322031909 74 156 6.0 7.0 0.00 0.00 0.00 67 1016.7
20170322031138 75 136 7.0 10.0 0.00 0.00 0.00 66 1016.6
20170322030410 74 141 8.0 8.0 0.00 0.00 0.00 66 1016.5
20170322025643 75 146 9.0 8.0 0.00 0.00 0.00 65 1016.3
20170322024917 75 141 7.0 8.0 0.00 0.00 0.00 66 1016.3
20170322024144 75 148 8.0 7.0 0.00 0.00 0.00 65 1016.1
20170322023419 76 136 7.0 6.0 0.00 0.00 0.00 64 1016.0
20170322022651 76 131 5.0 6.0 0.00 0.00 0.00 64 1015.8
20170322021925 77 134 4.0 4.0 0.00 0.00 0.00 63 1015.7
20170322021153 77 129 9.0 5.0 0.00 0.00 0.00 61 1015.6
20170322020424 77 131 7.0 9.0 0.00 0.00 0.00 61 1015.5
20170322015657 77 132 7.0 6.0 0.00 0.00 0.00 60 1015.5
20170322014931 78 155 7.0 7.0 0.00 0.00 0.00 60 1015.3
20170322014156 78 103 9.0 13.0 0.00 0.00 0.00 59 1015.1
20170322013429 78 145 7.0 11.0 0.00 0.00 0.00 59 1015.0
20170322012702 78 127 6.0 7.0 0.00 0.00 0.00 60 1014.9
20170322011936 78 129 5.0 7.0 0.00 0.00 0.00 59 1014.8
20170322011204 79 131 9.0 9.0 0.00 0.00 0.00 57 1014.8
20170322010437 79 127 8.0 13.0 0.00 0.00 0.00 57 1014.6
20170322005711 79 125 9.0 7.0 0.00 0.00 0.00 57 1014.4
20170322004943 80 149 8.0 11.0 0.00 0.00 0.00 56 1014.4
20170322004209 80 113 7.0 6.0 0.00 0.00 0.00 55 1014.4
20170322003443 81 114 6.0 7.0 0.00 0.00 0.00 51 1014.3
20170322002716 82 143 7.0 7.0 0.00 0.00 0.00 48 1014.2
20170322001950 83 135 9.0 8.0 0.00 0.00 0.00 47 1014.2